Multibeam Report for HLY1302


Ship Name: Healy
Chief Scientist: Keigwin, Lloyd
Woods Hole Oceanographic Institution
Source Organization: UNOLS R2R
Start Date: 2013-08-16
End Date: 2013-09-07


View ISO Metadata

Visit the full NCEI Bathymetry Viewer


Multibeam Bathymetry

Cruise Details

Project: Testing the Northern Route for Younger Dryas Meltwater
Instrument: Kongsberg EM122

Data Quality

Number of Files: 723
Number of Records: 1152225
BATHYMETRY DATA Quantity Percentage
Number of Beams 496263456 100%
Number of Good Beams 448523201 90.38%
Number of Zero Beams 0 0%
Number of Flagged Beams 47740255 9.62%

Navigation Totals

Total Time: 311.8418 hours
Total Track Length: 4963.3311 km
Average Speed: 15.916 km/hr (8.5940 knots)

Cruise Bounds

Northern Extent: 72.48833
Southern Extent: 69.83861
Western Extent: -158.0286
Eastern Extent: -122.71731

Limits

Minimum Sonar Depth 5.402 Maximum Sonar Depth 10.9621
Minimum Altitude 15.2142 Maximum Altitude 4615.6919
Minimum Depth 18.2405 Maximum Depth 5437.0815

File Information

Full Resolution Bathymetry as collected (raw): 722

Files File Size Description
0000_20130819_054432.all.mb58.gz 48.44MB Kongsberg multibeam vendor format
0001_20130819_061432.all.mb58.gz 37.59MB Kongsberg multibeam vendor format
0002_20130819_064431.all.mb58.gz 38.28MB Kongsberg multibeam vendor format
0003_20130819_071432.all.mb58.gz 40.47MB Kongsberg multibeam vendor format
0004_20130819_074430.all.mb58.gz 40.98MB Kongsberg multibeam vendor format
0005_20130819_081435.all.mb58.gz 37.01MB Kongsberg multibeam vendor format
0006_20130819_084433.all.mb58.gz 36.12MB Kongsberg multibeam vendor format
0007_20130819_091433.all.mb58.gz 33.32MB Kongsberg multibeam vendor format
0008_20130819_094432.all.mb58.gz 35.04MB Kongsberg multibeam vendor format
0009_20130819_101431.all.mb58.gz 29.89MB Kongsberg multibeam vendor format
0010_20130819_104436.all.mb58.gz 29.12MB Kongsberg multibeam vendor format
0011_20130819_111433.all.mb58.gz 27.68MB Kongsberg multibeam vendor format
0012_20130819_114430.all.mb58.gz 27.50MB Kongsberg multibeam vendor format
0013_20130819_121435.all.mb58.gz 27.36MB Kongsberg multibeam vendor format
0014_20130819_124434.all.mb58.gz 27.14MB Kongsberg multibeam vendor format
0015_20130819_131433.all.mb58.gz 27.23MB Kongsberg multibeam vendor format
0016_20130819_134435.all.mb58.gz 27.68MB Kongsberg multibeam vendor format
0017_20130819_141434.all.mb58.gz 28.57MB Kongsberg multibeam vendor format
0018_20130819_144434.all.mb58.gz 27.93MB Kongsberg multibeam vendor format
0019_20130819_151433.all.mb58.gz 27.36MB Kongsberg multibeam vendor format
0020_20130819_154434.all.mb58.gz 27.81MB Kongsberg multibeam vendor format
0021_20130819_161437.all.mb58.gz 27.64MB Kongsberg multibeam vendor format
0022_20130819_164434.all.mb58.gz 28.60MB Kongsberg multibeam vendor format
0023_20130819_171437.all.mb58.gz 27.46MB Kongsberg multibeam vendor format
0024_20130819_174432.all.mb58.gz 27.94MB Kongsberg multibeam vendor format
0025_20130819_181430.all.mb58.gz 32.42MB Kongsberg multibeam vendor format
0026_20130819_184435.all.mb58.gz 35.93MB Kongsberg multibeam vendor format
0027_20130819_191434.all.mb58.gz 30.93MB Kongsberg multibeam vendor format
0028_20130819_194434.all.mb58.gz 27.72MB Kongsberg multibeam vendor format
0029_20130819_201441.all.mb58.gz 33.33MB Kongsberg multibeam vendor format
0030_20130819_204432.all.mb58.gz 39.97MB Kongsberg multibeam vendor format
0031_20130819_211433.all.mb58.gz 42.82MB Kongsberg multibeam vendor format
0032_20130819_214430.all.mb58.gz 36.31MB Kongsberg multibeam vendor format
0033_20130819_220539.all.mb58.gz 44.56MB Kongsberg multibeam vendor format
0034_20130819_223542.all.mb58.gz 32.87MB Kongsberg multibeam vendor format
0035_20130819_230017.all.mb58.gz 38.14MB Kongsberg multibeam vendor format
0036_20130819_233015.all.mb58.gz 39.35MB Kongsberg multibeam vendor format
0037_20130819_235434.all.mb58.gz 49.05MB Kongsberg multibeam vendor format
0038_20130820_002435.all.mb58.gz 37.86MB Kongsberg multibeam vendor format
0039_20130820_005209.all.mb58.gz 38.89MB Kongsberg multibeam vendor format
0040_20130820_012210.all.mb58.gz 47.41MB Kongsberg multibeam vendor format
0041_20130820_015048.all.mb58.gz 49.84MB Kongsberg multibeam vendor format
0042_20130820_022047.all.mb58.gz 28.61MB Kongsberg multibeam vendor format
0043_20130820_024157.all.mb58.gz 39.14MB Kongsberg multibeam vendor format
0044_20130820_031158.all.mb58.gz 41.20MB Kongsberg multibeam vendor format
0045_20130820_033730.all.mb58.gz 49.98MB Kongsberg multibeam vendor format
0046_20130820_040732.all.mb58.gz 32.03MB Kongsberg multibeam vendor format
0047_20130820_043225.all.mb58.gz 37.60MB Kongsberg multibeam vendor format
0048_20130820_050226.all.mb58.gz 40.84MB Kongsberg multibeam vendor format
0049_20130820_052750.all.mb58.gz 38.40MB Kongsberg multibeam vendor format
0050_20130820_055750.all.mb58.gz 8.78MB Kongsberg multibeam vendor format
0051_20130821_000646.all.mb58.gz 51.25MB Kongsberg multibeam vendor format
0052_20130821_003647.all.mb58.gz 51.67MB Kongsberg multibeam vendor format
0053_20130821_010647.all.mb58.gz 50.81MB Kongsberg multibeam vendor format
0054_20130821_013646.all.mb58.gz 50.63MB Kongsberg multibeam vendor format
0055_20130821_020648.all.mb58.gz 51.31MB Kongsberg multibeam vendor format
0056_20130821_023647.all.mb58.gz 53.97MB Kongsberg multibeam vendor format
0057_20130821_030646.all.mb58.gz 57.71MB Kongsberg multibeam vendor format
0058_20130821_033647.all.mb58.gz 56.42MB Kongsberg multibeam vendor format
0059_20130821_040647.all.mb58.gz 14.41MB Kongsberg multibeam vendor format
0060_20130821_041446.all.mb58.gz 32.50MB Kongsberg multibeam vendor format
0061_20130821_043737.all.mb58.gz 47.70MB Kongsberg multibeam vendor format
0062_20130821_050733.all.mb58.gz 32.00MB Kongsberg multibeam vendor format
0063_20130821_051647.all.mb58.gz 68.51MB Kongsberg multibeam vendor format
0064_20130821_054650.all.mb58.gz 15.26MB Kongsberg multibeam vendor format
0065_20130821_055825.all.mb58.gz 12.35MB Kongsberg multibeam vendor format
0066_20130821_060846.all.mb58.gz 27.29MB Kongsberg multibeam vendor format
0067_20130821_062716.all.mb58.gz 15.60MB Kongsberg multibeam vendor format
0068_20130821_063608.all.mb58.gz 34.90MB Kongsberg multibeam vendor format
0069_20130821_065948.all.mb58.gz 40.53MB Kongsberg multibeam vendor format
0070_20130821_072948.all.mb58.gz 11.26MB Kongsberg multibeam vendor format
0071_20130821_073606.all.mb58.gz 57.39MB Kongsberg multibeam vendor format
0072_20130821_080607.all.mb58.gz 54.70MB Kongsberg multibeam vendor format
0073_20130821_083607.all.mb58.gz 7.37MB Kongsberg multibeam vendor format
0074_20130821_084012.all.mb58.gz 15.70MB Kongsberg multibeam vendor format
0075_20130821_235122.all.mb58.gz 43.84MB Kongsberg multibeam vendor format
0076_20130822_002122.all.mb58.gz 46.88MB Kongsberg multibeam vendor format
0077_20130822_005122.all.mb58.gz 49.60MB Kongsberg multibeam vendor format
0078_20130822_012122.all.mb58.gz 44.87MB Kongsberg multibeam vendor format
0079_20130822_015122.all.mb58.gz 45.00MB Kongsberg multibeam vendor format
0080_20130822_022124.all.mb58.gz 48.02MB Kongsberg multibeam vendor format
0081_20130822_025122.all.mb58.gz 39.08MB Kongsberg multibeam vendor format
0082_20130822_032124.all.mb58.gz 39.74MB Kongsberg multibeam vendor format
0083_20130822_035125.all.mb58.gz 38.11MB Kongsberg multibeam vendor format
0084_20130822_042014.all.mb58.gz 37.94MB Kongsberg multibeam vendor format
0085_20130822_044927.all.mb58.gz 38.67MB Kongsberg multibeam vendor format
0086_20130822_051927.all.mb58.gz 39.44MB Kongsberg multibeam vendor format
0087_20130822_054927.all.mb58.gz 19.82MB Kongsberg multibeam vendor format
0088_20130822_060327.all.mb58.gz 46.02MB Kongsberg multibeam vendor format
0089_20130822_063328.all.mb58.gz 44.25MB Kongsberg multibeam vendor format
0090_20130822_070329.all.mb58.gz 5.06MB Kongsberg multibeam vendor format
0091_20130822_070654.all.mb58.gz 11.84MB Kongsberg multibeam vendor format
0092_20130822_071443.all.mb58.gz 43.62MB Kongsberg multibeam vendor format
0093_20130822_074443.all.mb58.gz 43.93MB Kongsberg multibeam vendor format
0094_20130822_081322.all.mb58.gz 0.91MB Kongsberg multibeam vendor format
0095_20130822_201150.all.mb58.gz 1.38MB Kongsberg multibeam vendor format
0096_20130822_231104.all.mb58.gz 44.55MB Kongsberg multibeam vendor format
0097_20130822_234102.all.mb58.gz 45.61MB Kongsberg multibeam vendor format
0098_20130823_001105.all.mb58.gz 38.41MB Kongsberg multibeam vendor format
0099_20130823_004106.all.mb58.gz 36.21MB Kongsberg multibeam vendor format
0100_20130823_011103.all.mb58.gz 35.22MB Kongsberg multibeam vendor format
0101_20130823_014106.all.mb58.gz 34.51MB Kongsberg multibeam vendor format
0102_20130823_021103.all.mb58.gz 34.67MB Kongsberg multibeam vendor format
0103_20130823_024103.all.mb58.gz 34.19MB Kongsberg multibeam vendor format
0104_20130823_031104.all.mb58.gz 33.22MB Kongsberg multibeam vendor format
0105_20130823_034105.all.mb58.gz 35.83MB Kongsberg multibeam vendor format
0106_20130823_041107.all.mb58.gz 36.49MB Kongsberg multibeam vendor format
0107_20130823_044106.all.mb58.gz 34.26MB Kongsberg multibeam vendor format
0108_20130823_051105.all.mb58.gz 33.98MB Kongsberg multibeam vendor format
0109_20130823_054102.all.mb58.gz 31.98MB Kongsberg multibeam vendor format
0110_20130823_061106.all.mb58.gz 32.48MB Kongsberg multibeam vendor format
0111_20130823_064103.all.mb58.gz 33.42MB Kongsberg multibeam vendor format
0112_20130823_071102.all.mb58.gz 5.01MB Kongsberg multibeam vendor format
0113_20130823_071558.all.mb58.gz 31.25MB Kongsberg multibeam vendor format
0114_20130823_074439.all.mb58.gz 34.20MB Kongsberg multibeam vendor format
0115_20130823_081438.all.mb58.gz 37.35MB Kongsberg multibeam vendor format
0116_20130823_084437.all.mb58.gz 38.94MB Kongsberg multibeam vendor format
0117_20130823_091438.all.mb58.gz 45.01MB Kongsberg multibeam vendor format
0118_20130823_094436.all.mb58.gz 18.33MB Kongsberg multibeam vendor format
0119_20130823_095641.all.mb58.gz 22.94MB Kongsberg multibeam vendor format
0120_20130823_101332.all.mb58.gz 44.06MB Kongsberg multibeam vendor format
0121_20130823_104332.all.mb58.gz 43.72MB Kongsberg multibeam vendor format
0122_20130823_111333.all.mb58.gz 42.02MB Kongsberg multibeam vendor format
0123_20130823_114334.all.mb58.gz 38.80MB Kongsberg multibeam vendor format
0124_20130823_121332.all.mb58.gz 39.71MB Kongsberg multibeam vendor format
0125_20130823_124331.all.mb58.gz 24.97MB Kongsberg multibeam vendor format
0126_20130823_130234.all.mb58.gz 39.29MB Kongsberg multibeam vendor format
0127_20130823_133233.all.mb58.gz 39.69MB Kongsberg multibeam vendor format
0128_20130823_140231.all.mb58.gz 41.09MB Kongsberg multibeam vendor format
0129_20130823_143232.all.mb58.gz 43.04MB Kongsberg multibeam vendor format
0130_20130823_150231.all.mb58.gz 42.62MB Kongsberg multibeam vendor format
0131_20130823_153233.all.mb58.gz 34.28MB Kongsberg multibeam vendor format
0132_20130823_155751.all.mb58.gz 38.62MB Kongsberg multibeam vendor format
0133_20130823_162751.all.mb58.gz 42.06MB Kongsberg multibeam vendor format
0134_20130823_165751.all.mb58.gz 44.25MB Kongsberg multibeam vendor format
0135_20130823_172752.all.mb58.gz 44.23MB Kongsberg multibeam vendor format
0136_20130823_175752.all.mb58.gz 44.25MB Kongsberg multibeam vendor format
0137_20130823_182752.all.mb58.gz 44.30MB Kongsberg multibeam vendor format
0138_20130823_185752.all.mb58.gz 3.97MB Kongsberg multibeam vendor format
0139_20130824_011433.all.mb58.gz 39.98MB Kongsberg multibeam vendor format
0140_20130824_014433.all.mb58.gz 37.55MB Kongsberg multibeam vendor format
0141_20130824_021432.all.mb58.gz 35.97MB Kongsberg multibeam vendor format
0142_20130824_024433.all.mb58.gz 17.29MB Kongsberg multibeam vendor format
0143_20130824_031100.all.mb58.gz 40.53MB Kongsberg multibeam vendor format
0144_20130824_034100.all.mb58.gz 41.64MB Kongsberg multibeam vendor format
0145_20130824_041059.all.mb58.gz 38.60MB Kongsberg multibeam vendor format
0146_20130824_044101.all.mb58.gz 43.64MB Kongsberg multibeam vendor format
0147_20130824_051059.all.mb58.gz 13.05MB Kongsberg multibeam vendor format
0148_20130824_052725.all.mb58.gz 0.53MB Kongsberg multibeam vendor format
0149_20130824_052853.all.mb58.gz 36.95MB Kongsberg multibeam vendor format
0150_20130824_055853.all.mb58.gz 38.57MB Kongsberg multibeam vendor format
0151_20130824_062857.all.mb58.gz 36.84MB Kongsberg multibeam vendor format
0152_20130824_065856.all.mb58.gz 37.72MB Kongsberg multibeam vendor format
0153_20130824_072854.all.mb58.gz 32.44MB Kongsberg multibeam vendor format
0154_20130824_075854.all.mb58.gz 33.19MB Kongsberg multibeam vendor format
0155_20130824_082900.all.mb58.gz 33.24MB Kongsberg multibeam vendor format
0156_20130824_085859.all.mb58.gz 29.09MB Kongsberg multibeam vendor format
0157_20130824_092856.all.mb58.gz 27.60MB Kongsberg multibeam vendor format
0158_20130824_095855.all.mb58.gz 28.77MB Kongsberg multibeam vendor format
0159_20130824_102854.all.mb58.gz 29.21MB Kongsberg multibeam vendor format
0160_20130824_105857.all.mb58.gz 30.99MB Kongsberg multibeam vendor format
0161_20130824_112854.all.mb58.gz 30.74MB Kongsberg multibeam vendor format
0162_20130824_115857.all.mb58.gz 32.41MB Kongsberg multibeam vendor format
0163_20130824_122854.all.mb58.gz 31.70MB Kongsberg multibeam vendor format
0164_20130824_125857.all.mb58.gz 31.02MB Kongsberg multibeam vendor format
0165_20130824_132857.all.mb58.gz 30.78MB Kongsberg multibeam vendor format
0166_20130824_135856.all.mb58.gz 25.18MB Kongsberg multibeam vendor format
0167_20130824_142859.all.mb58.gz 31.64MB Kongsberg multibeam vendor format
0168_20130824_145856.all.mb58.gz 29.61MB Kongsberg multibeam vendor format
0169_20130824_152854.all.mb58.gz 28.00MB Kongsberg multibeam vendor format
0170_20130824_155855.all.mb58.gz 28.16MB Kongsberg multibeam vendor format
0171_20130824_162855.all.mb58.gz 28.50MB Kongsberg multibeam vendor format
0172_20130824_165857.all.mb58.gz 26.59MB Kongsberg multibeam vendor format
0173_20130824_172855.all.mb58.gz 26.77MB Kongsberg multibeam vendor format
0174_20130824_175855.all.mb58.gz 25.58MB Kongsberg multibeam vendor format
0175_20130824_182853.all.mb58.gz 26.11MB Kongsberg multibeam vendor format
0176_20130824_185854.all.mb58.gz 24.53MB Kongsberg multibeam vendor format
0177_20130824_192854.all.mb58.gz 24.82MB Kongsberg multibeam vendor format
0178_20130824_195855.all.mb58.gz 26.68MB Kongsberg multibeam vendor format
0179_20130824_202855.all.mb58.gz 26.03MB Kongsberg multibeam vendor format
0180_20130824_205856.all.mb58.gz 32.91MB Kongsberg multibeam vendor format
0181_20130824_212856.all.mb58.gz 36.14MB Kongsberg multibeam vendor format
0182_20130824_215854.all.mb58.gz 35.09MB Kongsberg multibeam vendor format
0183_20130824_222856.all.mb58.gz 36.39MB Kongsberg multibeam vendor format
0184_20130824_225855.all.mb58.gz 10.29MB Kongsberg multibeam vendor format
0185_20130825_040637.all.mb58.gz 33.03MB Kongsberg multibeam vendor format
0186_20130825_043640.all.mb58.gz 34.69MB Kongsberg multibeam vendor format
0187_20130825_050641.all.mb58.gz 34.16MB Kongsberg multibeam vendor format
0188_20130825_053637.all.mb58.gz 29.40MB Kongsberg multibeam vendor format
0189_20130825_060640.all.mb58.gz 32.07MB Kongsberg multibeam vendor format
0190_20130825_063638.all.mb58.gz 33.56MB Kongsberg multibeam vendor format
0191_20130825_070638.all.mb58.gz 33.58MB Kongsberg multibeam vendor format
0192_20130825_073637.all.mb58.gz 33.92MB Kongsberg multibeam vendor format
0193_20130825_080640.all.mb58.gz 37.39MB Kongsberg multibeam vendor format
0194_20130825_083637.all.mb58.gz 36.73MB Kongsberg multibeam vendor format
0195_20130825_090642.all.mb58.gz 32.34MB Kongsberg multibeam vendor format
0196_20130825_093641.all.mb58.gz 33.62MB Kongsberg multibeam vendor format
0197_20130825_100639.all.mb58.gz 26.45MB Kongsberg multibeam vendor format
0198_20130825_103642.all.mb58.gz 27.46MB Kongsberg multibeam vendor format
0199_20130825_110641.all.mb58.gz 28.97MB Kongsberg multibeam vendor format
0200_20130825_113637.all.mb58.gz 28.83MB Kongsberg multibeam vendor format
0201_20130825_120642.all.mb58.gz 23.21MB Kongsberg multibeam vendor format
0202_20130825_123638.all.mb58.gz 22.04MB Kongsberg multibeam vendor format
0203_20130825_130637.all.mb58.gz 22.85MB Kongsberg multibeam vendor format
0204_20130825_133641.all.mb58.gz 20.78MB Kongsberg multibeam vendor format
0205_20130825_140642.all.mb58.gz 21.22MB Kongsberg multibeam vendor format
0206_20130825_143642.all.mb58.gz 50.22MB Kongsberg multibeam vendor format
0207_20130825_150641.all.mb58.gz 24.87MB Kongsberg multibeam vendor format
0208_20130825_153641.all.mb58.gz 21.73MB Kongsberg multibeam vendor format
0209_20130825_165435.all.mb58.gz 65.64MB Kongsberg multibeam vendor format
0210_20130825_172435.all.mb58.gz 41.16MB Kongsberg multibeam vendor format
0211_20130825_175435.all.mb58.gz 54.74MB Kongsberg multibeam vendor format
0212_20130825_182435.all.mb58.gz 54.72MB Kongsberg multibeam vendor format
0213_20130825_185436.all.mb58.gz 56.04MB Kongsberg multibeam vendor format
0214_20130825_192435.all.mb58.gz 56.03MB Kongsberg multibeam vendor format
0215_20130825_195436.all.mb58.gz 54.13MB Kongsberg multibeam vendor format
0216_20130825_202435.all.mb58.gz 55.21MB Kongsberg multibeam vendor format
0217_20130825_205436.all.mb58.gz 56.98MB Kongsberg multibeam vendor format
0218_20130825_212435.all.mb58.gz 57.37MB Kongsberg multibeam vendor format
0219_20130825_215436.all.mb58.gz 63.47MB Kongsberg multibeam vendor format
0220_20130825_222435.all.mb58.gz 60.92MB Kongsberg multibeam vendor format
0221_20130825_225435.all.mb58.gz 58.00MB Kongsberg multibeam vendor format
0222_20130825_232436.all.mb58.gz 51.61MB Kongsberg multibeam vendor format
0223_20130825_235437.all.mb58.gz 50.97MB Kongsberg multibeam vendor format
0224_20130826_002436.all.mb58.gz 51.35MB Kongsberg multibeam vendor format
0225_20130826_005436.all.mb58.gz 49.26MB Kongsberg multibeam vendor format
0226_20130826_012436.all.mb58.gz 46.61MB Kongsberg multibeam vendor format
0227_20130826_015437.all.mb58.gz 17.97MB Kongsberg multibeam vendor format
0228_20130826_020607.all.mb58.gz 47.41MB Kongsberg multibeam vendor format
0229_20130826_023605.all.mb58.gz 9.82MB Kongsberg multibeam vendor format
0230_20130826_024156.all.mb58.gz 47.52MB Kongsberg multibeam vendor format
0231_20130826_031158.all.mb58.gz 47.53MB Kongsberg multibeam vendor format
0232_20130826_034155.all.mb58.gz 10.09MB Kongsberg multibeam vendor format
0233_20130826_034743.all.mb58.gz 49.87MB Kongsberg multibeam vendor format
0234_20130826_041744.all.mb58.gz 49.90MB Kongsberg multibeam vendor format
0235_20130826_044744.all.mb58.gz 50.17MB Kongsberg multibeam vendor format
0236_20130826_051743.all.mb58.gz 52.38MB Kongsberg multibeam vendor format
0237_20130826_054742.all.mb58.gz 52.18MB Kongsberg multibeam vendor format
0238_20130826_061743.all.mb58.gz 54.06MB Kongsberg multibeam vendor format
0239_20130826_064743.all.mb58.gz 60.10MB Kongsberg multibeam vendor format
0240_20130826_071743.all.mb58.gz 62.22MB Kongsberg multibeam vendor format
0241_20130826_074744.all.mb58.gz 57.15MB Kongsberg multibeam vendor format
0242_20130826_081744.all.mb58.gz 56.11MB Kongsberg multibeam vendor format
0243_20130826_084742.all.mb58.gz 54.43MB Kongsberg multibeam vendor format
0244_20130826_091744.all.mb58.gz 35.59MB Kongsberg multibeam vendor format
0245_20130826_093800.all.mb58.gz 19.85MB Kongsberg multibeam vendor format
0246_20130826_094916.all.mb58.gz 5.41MB Kongsberg multibeam vendor format
0247_20130826_095221.all.mb58.gz 53.68MB Kongsberg multibeam vendor format
0248_20130826_102219.all.mb58.gz 55.85MB Kongsberg multibeam vendor format
0249_20130826_105220.all.mb58.gz 2.21MB Kongsberg multibeam vendor format
0250_20130826_105330.all.mb58.gz 16.79MB Kongsberg multibeam vendor format
0251_20130826_110230.all.mb58.gz 55.41MB Kongsberg multibeam vendor format
0252_20130826_113230.all.mb58.gz 50.89MB Kongsberg multibeam vendor format
0253_20130826_120118.all.mb58.gz 18.41MB Kongsberg multibeam vendor format
0254_20130826_121144.all.mb58.gz 53.68MB Kongsberg multibeam vendor format
0255_20130826_124142.all.mb58.gz 42.53MB Kongsberg multibeam vendor format
0256_20130826_130447.all.mb58.gz 6.52MB Kongsberg multibeam vendor format
0257_20130826_130817.all.mb58.gz 54.81MB Kongsberg multibeam vendor format
0258_20130826_133818.all.mb58.gz 12.10MB Kongsberg multibeam vendor format
0259_20130826_134504.all.mb58.gz 11.18MB Kongsberg multibeam vendor format
0260_20130826_135121.all.mb58.gz 52.84MB Kongsberg multibeam vendor format
0261_20130826_142120.all.mb58.gz 14.77MB Kongsberg multibeam vendor format
0262_20130826_142938.all.mb58.gz 53.07MB Kongsberg multibeam vendor format
0263_20130826_145938.all.mb58.gz 52.80MB Kongsberg multibeam vendor format
0264_20130826_152937.all.mb58.gz 52.91MB Kongsberg multibeam vendor format
0265_20130826_155937.all.mb58.gz 53.20MB Kongsberg multibeam vendor format
0266_20130826_162937.all.mb58.gz 53.33MB Kongsberg multibeam vendor format
0267_20130826_165937.all.mb58.gz 53.38MB Kongsberg multibeam vendor format
0268_20130826_172937.all.mb58.gz 53.44MB Kongsberg multibeam vendor format
0269_20130826_175936.all.mb58.gz 53.37MB Kongsberg multibeam vendor format
0270_20130826_182938.all.mb58.gz 53.24MB Kongsberg multibeam vendor format
0271_20130826_185936.all.mb58.gz 53.25MB Kongsberg multibeam vendor format
0272_20130826_192937.all.mb58.gz 36.63MB Kongsberg multibeam vendor format
0273_20130826_200515.all.mb58.gz 52.72MB Kongsberg multibeam vendor format
0274_20130826_203516.all.mb58.gz 55.33MB Kongsberg multibeam vendor format
0275_20130826_210515.all.mb58.gz 57.95MB Kongsberg multibeam vendor format
0276_20130826_213515.all.mb58.gz 39.91MB Kongsberg multibeam vendor format
0277_20130826_220321.all.mb58.gz 57.17MB Kongsberg multibeam vendor format
0278_20130826_223314.all.mb58.gz 54.73MB Kongsberg multibeam vendor format
0279_20130826_230314.all.mb58.gz 57.87MB Kongsberg multibeam vendor format
0280_20130826_233314.all.mb58.gz 58.82MB Kongsberg multibeam vendor format
0281_20130827_000313.all.mb58.gz 42.47MB Kongsberg multibeam vendor format
0282_20130827_003314.all.mb58.gz 29.47MB Kongsberg multibeam vendor format
0283_20130827_010313.all.mb58.gz 74.12MB Kongsberg multibeam vendor format
0284_20130827_013314.all.mb58.gz 53.11MB Kongsberg multibeam vendor format
0285_20130827_020314.all.mb58.gz 67.96MB Kongsberg multibeam vendor format
0286_20130827_023314.all.mb58.gz 63.72MB Kongsberg multibeam vendor format
0287_20130827_030313.all.mb58.gz 64.56MB Kongsberg multibeam vendor format
0288_20130827_033313.all.mb58.gz 65.39MB Kongsberg multibeam vendor format
0289_20130827_040313.all.mb58.gz 64.28MB Kongsberg multibeam vendor format
0290_20130827_043314.all.mb58.gz 6.15MB Kongsberg multibeam vendor format
0291_20130827_055444.all.mb58.gz 54.31MB Kongsberg multibeam vendor format
0292_20130827_062445.all.mb58.gz 36.74MB Kongsberg multibeam vendor format
0293_20130827_065444.all.mb58.gz 36.50MB Kongsberg multibeam vendor format
0294_20130827_072445.all.mb58.gz 34.60MB Kongsberg multibeam vendor format
0295_20130827_075443.all.mb58.gz 27.05MB Kongsberg multibeam vendor format
0296_20130827_082450.all.mb58.gz 23.08MB Kongsberg multibeam vendor format
0297_20130827_085451.all.mb58.gz 28.00MB Kongsberg multibeam vendor format
0298_20130827_092448.all.mb58.gz 29.69MB Kongsberg multibeam vendor format
0299_20130827_095444.all.mb58.gz 23.66MB Kongsberg multibeam vendor format
0300_20130827_102445.all.mb58.gz 23.08MB Kongsberg multibeam vendor format
0301_20130827_105450.all.mb58.gz 28.92MB Kongsberg multibeam vendor format
0302_20130827_112443.all.mb58.gz 21.93MB Kongsberg multibeam vendor format
0303_20130827_115448.all.mb58.gz 21.79MB Kongsberg multibeam vendor format
0304_20130827_122445.all.mb58.gz 20.65MB Kongsberg multibeam vendor format
0305_20130827_125445.all.mb58.gz 31.23MB Kongsberg multibeam vendor format
0306_20130827_132445.all.mb58.gz 36.60MB Kongsberg multibeam vendor format
0307_20130827_135443.all.mb58.gz 34.18MB Kongsberg multibeam vendor format
0308_20130827_142444.all.mb58.gz 11.59MB Kongsberg multibeam vendor format
0309_20130827_143601.all.mb58.gz 21.45MB Kongsberg multibeam vendor format
0310_20130827_145406.all.mb58.gz 30.54MB Kongsberg multibeam vendor format
0311_20130827_152406.all.mb58.gz 34.22MB Kongsberg multibeam vendor format
0312_20130827_155406.all.mb58.gz 2.93MB Kongsberg multibeam vendor format
0313_20130827_155700.all.mb58.gz 34.64MB Kongsberg multibeam vendor format
0314_20130827_162700.all.mb58.gz 31.34MB Kongsberg multibeam vendor format
0315_20130827_223009.all.mb58.gz 42.92MB Kongsberg multibeam vendor format
0316_20130827_230009.all.mb58.gz 42.84MB Kongsberg multibeam vendor format
0317_20130827_233010.all.mb58.gz 42.24MB Kongsberg multibeam vendor format
0318_20130828_000007.all.mb58.gz 35.06MB Kongsberg multibeam vendor format
0319_20130828_003009.all.mb58.gz 34.06MB Kongsberg multibeam vendor format
0320_20130828_010009.all.mb58.gz 37.61MB Kongsberg multibeam vendor format
0321_20130828_013007.all.mb58.gz 36.82MB Kongsberg multibeam vendor format
0322_20130828_020008.all.mb58.gz 36.39MB Kongsberg multibeam vendor format
0323_20130828_023008.all.mb58.gz 41.44MB Kongsberg multibeam vendor format
0324_20130828_030008.all.mb58.gz 37.44MB Kongsberg multibeam vendor format
0325_20130828_033007.all.mb58.gz 42.75MB Kongsberg multibeam vendor format
0326_20130828_040007.all.mb58.gz 49.15MB Kongsberg multibeam vendor format
0327_20130828_043007.all.mb58.gz 10.66MB Kongsberg multibeam vendor format
0328_20130828_043719.all.mb58.gz 30.90MB Kongsberg multibeam vendor format
0329_20130828_050718.all.mb58.gz 23.23MB Kongsberg multibeam vendor format
0330_20130828_053447.all.mb58.gz 31.87MB Kongsberg multibeam vendor format
0331_20130828_060446.all.mb58.gz 27.34MB Kongsberg multibeam vendor format
0332_20130828_063445.all.mb58.gz 29.70MB Kongsberg multibeam vendor format
0333_20130828_065903.all.mb58.gz 19.40MB Kongsberg multibeam vendor format
0334_20130828_071624.all.mb58.gz 36.37MB Kongsberg multibeam vendor format
0335_20130828_074624.all.mb58.gz 30.65MB Kongsberg multibeam vendor format
0336_20130828_081624.all.mb58.gz 23.34MB Kongsberg multibeam vendor format
0337_20130828_084340.all.mb58.gz 1.75MB Kongsberg multibeam vendor format
0338_20130828_084521.all.mb58.gz 38.60MB Kongsberg multibeam vendor format
0339_20130828_091522.all.mb58.gz 62.4KB Kongsberg multibeam vendor format
0340_20130828_091527.all.mb58.gz 4.92MB Kongsberg multibeam vendor format
0341_20130828_091834.all.mb58.gz 36.43MB Kongsberg multibeam vendor format
0342_20130828_094834.all.mb58.gz 34.40MB Kongsberg multibeam vendor format
0343_20130828_101836.all.mb58.gz 25.07MB Kongsberg multibeam vendor format
0344_20130828_104838.all.mb58.gz 11.24MB Kongsberg multibeam vendor format
0345_20130828_105917.all.mb58.gz 1.13MB Kongsberg multibeam vendor format
0346_20130828_110033.all.mb58.gz 8.84MB Kongsberg multibeam vendor format
0347_20130828_110652.all.mb58.gz 1.27MB Kongsberg multibeam vendor format
0348_20130828_110756.all.mb58.gz 30.31MB Kongsberg multibeam vendor format
0349_20130828_113754.all.mb58.gz 34.25MB Kongsberg multibeam vendor format
0350_20130828_120759.all.mb58.gz 29.01MB Kongsberg multibeam vendor format
0351_20130828_123757.all.mb58.gz 18.33MB Kongsberg multibeam vendor format
0352_20130828_125616.all.mb58.gz 19.90MB Kongsberg multibeam vendor format
0353_20130828_131054.all.mb58.gz 35.62MB Kongsberg multibeam vendor format
0354_20130828_134057.all.mb58.gz 38.34MB Kongsberg multibeam vendor format
0355_20130828_141055.all.mb58.gz 26.06MB Kongsberg multibeam vendor format
0356_20130828_144058.all.mb58.gz 11.00MB Kongsberg multibeam vendor format
0357_20130828_145119.all.mb58.gz 38.95MB Kongsberg multibeam vendor format
0358_20130828_152119.all.mb58.gz 32.00MB Kongsberg multibeam vendor format
0359_20130828_155124.all.mb58.gz 39.15MB Kongsberg multibeam vendor format
0360_20130828_162119.all.mb58.gz 44.53MB Kongsberg multibeam vendor format
0361_20130828_165119.all.mb58.gz 43.11MB Kongsberg multibeam vendor format
0362_20130828_172120.all.mb58.gz 42.64MB Kongsberg multibeam vendor format
0363_20130828_175122.all.mb58.gz 9.37MB Kongsberg multibeam vendor format
0364_20130828_202942.all.mb58.gz 0.58MB Kongsberg multibeam vendor format
0365_20130829_002600.all.mb58.gz 34.87MB Kongsberg multibeam vendor format
0366_20130829_005600.all.mb58.gz 39.34MB Kongsberg multibeam vendor format
0367_20130829_012558.all.mb58.gz 34.76MB Kongsberg multibeam vendor format
0368_20130829_015558.all.mb58.gz 36.39MB Kongsberg multibeam vendor format
0369_20130829_022558.all.mb58.gz 30.91MB Kongsberg multibeam vendor format
0370_20130829_025559.all.mb58.gz 35.60MB Kongsberg multibeam vendor format
0371_20130829_032559.all.mb58.gz 39.52MB Kongsberg multibeam vendor format
0372_20130829_035559.all.mb58.gz 30.97MB Kongsberg multibeam vendor format
0373_20130829_042559.all.mb58.gz 35.15MB Kongsberg multibeam vendor format
0374_20130829_045559.all.mb58.gz 32.39MB Kongsberg multibeam vendor format
0375_20130829_052558.all.mb58.gz 31.45MB Kongsberg multibeam vendor format
0376_20130829_055558.all.mb58.gz 29.69MB Kongsberg multibeam vendor format
0377_20130829_062557.all.mb58.gz 18.23MB Kongsberg multibeam vendor format
0378_20130829_064128.all.mb58.gz 50.20MB Kongsberg multibeam vendor format
0379_20130829_071129.all.mb58.gz 39.33MB Kongsberg multibeam vendor format
0380_20130829_074128.all.mb58.gz 46.16MB Kongsberg multibeam vendor format
0381_20130829_081128.all.mb58.gz 42.13MB Kongsberg multibeam vendor format
0382_20130829_084128.all.mb58.gz 49.74MB Kongsberg multibeam vendor format
0383_20130829_091101.all.mb58.gz 26.31MB Kongsberg multibeam vendor format
0384_20130829_092548.all.mb58.gz 55.13MB Kongsberg multibeam vendor format
0385_20130829_095547.all.mb58.gz 55.54MB Kongsberg multibeam vendor format
0386_20130829_102546.all.mb58.gz 50.67MB Kongsberg multibeam vendor format
0387_20130829_105547.all.mb58.gz 35.04MB Kongsberg multibeam vendor format
0388_20130829_111808.all.mb58.gz 36.37MB Kongsberg multibeam vendor format
0389_20130829_114103.all.mb58.gz 57.96MB Kongsberg multibeam vendor format
0390_20130829_121102.all.mb58.gz 49.74MB Kongsberg multibeam vendor format
0391_20130829_123451.all.mb58.gz 10.83MB Kongsberg multibeam vendor format
0392_20130829_124002.all.mb58.gz 51.02MB Kongsberg multibeam vendor format
0393_20130829_131003.all.mb58.gz 25.65MB Kongsberg multibeam vendor format
0394_20130829_132905.all.mb58.gz 23.96MB Kongsberg multibeam vendor format
0395_20130829_134556.all.mb58.gz 20.40MB Kongsberg multibeam vendor format
0396_20130829_140141.all.mb58.gz 40.81MB Kongsberg multibeam vendor format
0397_20130829_143141.all.mb58.gz 36.68MB Kongsberg multibeam vendor format
0398_20130829_150140.all.mb58.gz 41.14MB Kongsberg multibeam vendor format
0399_20130829_153141.all.mb58.gz 44.47MB Kongsberg multibeam vendor format
0400_20130829_160141.all.mb58.gz 44.35MB Kongsberg multibeam vendor format
0401_20130829_163142.all.mb58.gz 43.73MB Kongsberg multibeam vendor format
0402_20130829_170141.all.mb58.gz 43.46MB Kongsberg multibeam vendor format
0403_20130829_173142.all.mb58.gz 43.34MB Kongsberg multibeam vendor format
0404_20130829_180141.all.mb58.gz 43.45MB Kongsberg multibeam vendor format
0405_20130829_183142.all.mb58.gz 43.19MB Kongsberg multibeam vendor format
0406_20130829_190140.all.mb58.gz 43.27MB Kongsberg multibeam vendor format
0407_20130829_193140.all.mb58.gz 36.81MB Kongsberg multibeam vendor format
0408_20130829_200140.all.mb58.gz 33.74MB Kongsberg multibeam vendor format
0409_20130829_203141.all.mb58.gz 36.22MB Kongsberg multibeam vendor format
0410_20130829_210141.all.mb58.gz 40.93MB Kongsberg multibeam vendor format
0411_20130829_213142.all.mb58.gz 41.27MB Kongsberg multibeam vendor format
0412_20130829_220141.all.mb58.gz 37.85MB Kongsberg multibeam vendor format
0413_20130829_223142.all.mb58.gz 38.03MB Kongsberg multibeam vendor format
0414_20130829_230141.all.mb58.gz 37.47MB Kongsberg multibeam vendor format
0415_20130829_233144.all.mb58.gz 4.45MB Kongsberg multibeam vendor format
0416_20130830_012503.all.mb58.gz 36.59MB Kongsberg multibeam vendor format
0417_20130830_015501.all.mb58.gz 36.80MB Kongsberg multibeam vendor format
0418_20130830_022501.all.mb58.gz 36.34MB Kongsberg multibeam vendor format
0419_20130830_025504.all.mb58.gz 36.24MB Kongsberg multibeam vendor format
0420_20130830_032502.all.mb58.gz 36.22MB Kongsberg multibeam vendor format
0421_20130830_035503.all.mb58.gz 36.40MB Kongsberg multibeam vendor format
0422_20130830_042502.all.mb58.gz 37.68MB Kongsberg multibeam vendor format
0423_20130830_045503.all.mb58.gz 38.91MB Kongsberg multibeam vendor format
0424_20130830_052501.all.mb58.gz 43.81MB Kongsberg multibeam vendor format
0425_20130830_055501.all.mb58.gz 50.34MB Kongsberg multibeam vendor format
0426_20130830_062501.all.mb58.gz 66.29MB Kongsberg multibeam vendor format
0427_20130830_065501.all.mb58.gz 76.59MB Kongsberg multibeam vendor format
0428_20130830_072501.all.mb58.gz 94.96MB Kongsberg multibeam vendor format
0429_20130830_075501.all.mb58.gz 114.39MB Kongsberg multibeam vendor format
0430_20130830_082501.all.mb58.gz 128.04MB Kongsberg multibeam vendor format
0431_20130830_085501.all.mb58.gz 131.17MB Kongsberg multibeam vendor format
0432_20130830_092501.all.mb58.gz 28.53MB Kongsberg multibeam vendor format
0433_20130830_093134.all.mb58.gz 131.09MB Kongsberg multibeam vendor format
0434_20130830_100134.all.mb58.gz 94.34MB Kongsberg multibeam vendor format
0435_20130830_102411.all.mb58.gz 128.94MB Kongsberg multibeam vendor format
0436_20130830_105411.all.mb58.gz 12.78MB Kongsberg multibeam vendor format
0437_20130830_105713.all.mb58.gz 15.50MB Kongsberg multibeam vendor format
0438_20130830_110116.all.mb58.gz 69.02MB Kongsberg multibeam vendor format
0439_20130830_111727.all.mb58.gz 76.78MB Kongsberg multibeam vendor format
0440_20130830_114055.all.mb58.gz 25.83MB Kongsberg multibeam vendor format
0441_20130830_114656.all.mb58.gz 13.89MB Kongsberg multibeam vendor format
0442_20130830_115204.all.mb58.gz 113.58MB Kongsberg multibeam vendor format
0443_20130830_122204.all.mb58.gz 54.93MB Kongsberg multibeam vendor format
0444_20130830_123716.all.mb58.gz 15.40MB Kongsberg multibeam vendor format
0445_20130830_124252.all.mb58.gz 66.36MB Kongsberg multibeam vendor format
0446_20130830_130010.all.mb58.gz 13.26MB Kongsberg multibeam vendor format
0447_20130830_130317.all.mb58.gz 10.39MB Kongsberg multibeam vendor format
0448_20130830_130551.all.mb58.gz 70.19MB Kongsberg multibeam vendor format
0449_20130830_132532.all.mb58.gz 16.24MB Kongsberg multibeam vendor format
0450_20130830_133052.all.mb58.gz 14.84MB Kongsberg multibeam vendor format
0451_20130830_133456.all.mb58.gz 46.15MB Kongsberg multibeam vendor format
0452_20130830_134750.all.mb58.gz 62.98MB Kongsberg multibeam vendor format
0453_20130830_140541.all.mb58.gz 21.62MB Kongsberg multibeam vendor format
0454_20130830_141043.all.mb58.gz 26.49MB Kongsberg multibeam vendor format
0455_20130830_141655.all.mb58.gz 37.97MB Kongsberg multibeam vendor format
0456_20130830_142804.all.mb58.gz 123.12MB Kongsberg multibeam vendor format
0457_20130830_145804.all.mb58.gz 128.77MB Kongsberg multibeam vendor format
0458_20130830_152805.all.mb58.gz 127.20MB Kongsberg multibeam vendor format
0459_20130830_155804.all.mb58.gz 129.96MB Kongsberg multibeam vendor format
0460_20130830_162805.all.mb58.gz 130.64MB Kongsberg multibeam vendor format
0461_20130830_165805.all.mb58.gz 27.84MB Kongsberg multibeam vendor format
0462_20130831_030155.all.mb58.gz 129.54MB Kongsberg multibeam vendor format
0463_20130831_033156.all.mb58.gz 127.83MB Kongsberg multibeam vendor format
0464_20130831_040155.all.mb58.gz 129.20MB Kongsberg multibeam vendor format
0465_20130831_043155.all.mb58.gz 93.18MB Kongsberg multibeam vendor format
0466_20130831_050155.all.mb58.gz 77.58MB Kongsberg multibeam vendor format
0467_20130831_053156.all.mb58.gz 67.90MB Kongsberg multibeam vendor format
0468_20130831_060155.all.mb58.gz 58.50MB Kongsberg multibeam vendor format
0469_20130831_063157.all.mb58.gz 53.81MB Kongsberg multibeam vendor format
0470_20130831_070156.all.mb58.gz 53.06MB Kongsberg multibeam vendor format
0471_20130831_073155.all.mb58.gz 52.75MB Kongsberg multibeam vendor format
0472_20130831_080155.all.mb58.gz 50.11MB Kongsberg multibeam vendor format
0473_20130831_083157.all.mb58.gz 48.79MB Kongsberg multibeam vendor format
0474_20130831_090157.all.mb58.gz 46.72MB Kongsberg multibeam vendor format
0475_20130831_093155.all.mb58.gz 45.29MB Kongsberg multibeam vendor format
0476_20130831_100156.all.mb58.gz 43.19MB Kongsberg multibeam vendor format
0477_20130831_103158.all.mb58.gz 34.83MB Kongsberg multibeam vendor format
0478_20130831_105921.all.mb58.gz 37.87MB Kongsberg multibeam vendor format
0479_20130831_112918.all.mb58.gz 18.03MB Kongsberg multibeam vendor format
0480_20130831_114348.all.mb58.gz 36.49MB Kongsberg multibeam vendor format
0481_20130831_121347.all.mb58.gz 40.61MB Kongsberg multibeam vendor format
0482_20130831_124349.all.mb58.gz 43.78MB Kongsberg multibeam vendor format
0483_20130831_131348.all.mb58.gz 47.10MB Kongsberg multibeam vendor format
0484_20130831_134348.all.mb58.gz 50.25MB Kongsberg multibeam vendor format
0485_20130831_141348.all.mb58.gz 53.24MB Kongsberg multibeam vendor format
0486_20130831_144347.all.mb58.gz 8.50MB Kongsberg multibeam vendor format
0487_20130831_144832.all.mb58.gz 45.99MB Kongsberg multibeam vendor format
0488_20130831_151648.all.mb58.gz 32.78MB Kongsberg multibeam vendor format
0489_20130831_153726.all.mb58.gz 49.06MB Kongsberg multibeam vendor format
0490_20130831_160726.all.mb58.gz 48.86MB Kongsberg multibeam vendor format
0491_20130831_163726.all.mb58.gz 48.64MB Kongsberg multibeam vendor format
0492_20130831_170726.all.mb58.gz 50.59MB Kongsberg multibeam vendor format
0493_20130831_173726.all.mb58.gz 50.39MB Kongsberg multibeam vendor format
0494_20130831_180725.all.mb58.gz 51.39MB Kongsberg multibeam vendor format
0495_20130831_183725.all.mb58.gz 49.22MB Kongsberg multibeam vendor format
0496_20130831_190728.all.mb58.gz 46.71MB Kongsberg multibeam vendor format
0497_20130831_193727.all.mb58.gz 45.96MB Kongsberg multibeam vendor format
0498_20130831_200726.all.mb58.gz 47.43MB Kongsberg multibeam vendor format
0499_20130831_203725.all.mb58.gz 45.26MB Kongsberg multibeam vendor format
0500_20130831_210726.all.mb58.gz 35.31MB Kongsberg multibeam vendor format
0501_20130831_213726.all.mb58.gz 30.35MB Kongsberg multibeam vendor format
0502_20130831_220729.all.mb58.gz 37.75MB Kongsberg multibeam vendor format
0503_20130831_223725.all.mb58.gz 36.17MB Kongsberg multibeam vendor format
0504_20130831_230729.all.mb58.gz 34.52MB Kongsberg multibeam vendor format
0505_20130831_233727.all.mb58.gz 38.92MB Kongsberg multibeam vendor format
0506_20130901_000725.all.mb58.gz 29.80MB Kongsberg multibeam vendor format
0507_20130901_003729.all.mb58.gz 33.94MB Kongsberg multibeam vendor format
0508_20130901_010725.all.mb58.gz 40.36MB Kongsberg multibeam vendor format
0509_20130901_013726.all.mb58.gz 43.33MB Kongsberg multibeam vendor format
0510_20130901_020728.all.mb58.gz 40.50MB Kongsberg multibeam vendor format
0511_20130901_023730.all.mb58.gz 41.91MB Kongsberg multibeam vendor format
0512_20130901_030726.all.mb58.gz 47.19MB Kongsberg multibeam vendor format
0513_20130901_033725.all.mb58.gz 41.51MB Kongsberg multibeam vendor format
0514_20130901_040726.all.mb58.gz 52.13MB Kongsberg multibeam vendor format
0515_20130901_043725.all.mb58.gz 54.76MB Kongsberg multibeam vendor format
0516_20130901_050726.all.mb58.gz 53.00MB Kongsberg multibeam vendor format
0517_20130901_053725.all.mb58.gz 49.25MB Kongsberg multibeam vendor format
0518_20130901_060725.all.mb58.gz 45.47MB Kongsberg multibeam vendor format
0519_20130901_063725.all.mb58.gz 44.18MB Kongsberg multibeam vendor format
0520_20130901_070727.all.mb58.gz 43.10MB Kongsberg multibeam vendor format
0521_20130901_073727.all.mb58.gz 45.57MB Kongsberg multibeam vendor format
0522_20130901_080725.all.mb58.gz 47.91MB Kongsberg multibeam vendor format
0523_20130901_083725.all.mb58.gz 51.29MB Kongsberg multibeam vendor format
0524_20130901_090725.all.mb58.gz 51.99MB Kongsberg multibeam vendor format
0525_20130901_093726.all.mb58.gz 52.52MB Kongsberg multibeam vendor format
0526_20130901_100726.all.mb58.gz 53.01MB Kongsberg multibeam vendor format
0527_20130901_103726.all.mb58.gz 53.89MB Kongsberg multibeam vendor format
0528_20130901_110726.all.mb58.gz 54.51MB Kongsberg multibeam vendor format
0529_20130901_113726.all.mb58.gz 57.43MB Kongsberg multibeam vendor format
0530_20130901_120726.all.mb58.gz 2.86MB Kongsberg multibeam vendor format
0531_20130901_120854.all.mb58.gz 57.85MB Kongsberg multibeam vendor format
0532_20130901_123854.all.mb58.gz 60.72MB Kongsberg multibeam vendor format
0533_20130901_130853.all.mb58.gz 62.52MB Kongsberg multibeam vendor format
0534_20130901_133853.all.mb58.gz 5.55MB Kongsberg multibeam vendor format
0535_20130901_134134.all.mb58.gz 58.27MB Kongsberg multibeam vendor format
0536_20130901_141133.all.mb58.gz 56.14MB Kongsberg multibeam vendor format
0537_20130901_144134.all.mb58.gz 59.51MB Kongsberg multibeam vendor format
0538_20130901_151134.all.mb58.gz 25.99MB Kongsberg multibeam vendor format
0539_20130901_152341.all.mb58.gz 33.66MB Kongsberg multibeam vendor format
0540_20130901_154104.all.mb58.gz 16.59MB Kongsberg multibeam vendor format
0541_20130901_155052.all.mb58.gz 56.95MB Kongsberg multibeam vendor format
0542_20130901_162052.all.mb58.gz 35.23MB Kongsberg multibeam vendor format
0543_20130901_164154.all.mb58.gz 7.00MB Kongsberg multibeam vendor format
0544_20130901_164613.all.mb58.gz 12.98MB Kongsberg multibeam vendor format
0545_20130901_165404.all.mb58.gz 8.80MB Kongsberg multibeam vendor format
0546_20130901_170012.all.mb58.gz 44.17MB Kongsberg multibeam vendor format
0547_20130901_173011.all.mb58.gz 46.98MB Kongsberg multibeam vendor format
0548_20130901_180009.all.mb58.gz 58.31MB Kongsberg multibeam vendor format
0549_20130901_183008.all.mb58.gz 57.56MB Kongsberg multibeam vendor format
0550_20130901_190009.all.mb58.gz 55.60MB Kongsberg multibeam vendor format
0551_20130901_193008.all.mb58.gz 59.21MB Kongsberg multibeam vendor format
0552_20130901_200010.all.mb58.gz 58.75MB Kongsberg multibeam vendor format
0553_20130901_203009.all.mb58.gz 58.59MB Kongsberg multibeam vendor format
0554_20130901_210008.all.mb58.gz 58.47MB Kongsberg multibeam vendor format
0555_20130901_213010.all.mb58.gz 57.80MB Kongsberg multibeam vendor format
0556_20130901_220010.all.mb58.gz 56.61MB Kongsberg multibeam vendor format
0557_20130901_223009.all.mb58.gz 53.32MB Kongsberg multibeam vendor format
0558_20130901_230009.all.mb58.gz 53.03MB Kongsberg multibeam vendor format
0559_20130901_233010.all.mb58.gz 51.84MB Kongsberg multibeam vendor format
0560_20130902_000010.all.mb58.gz 52.16MB Kongsberg multibeam vendor format
0561_20130902_003010.all.mb58.gz 51.99MB Kongsberg multibeam vendor format
0562_20130902_010009.all.mb58.gz 53.19MB Kongsberg multibeam vendor format
0563_20130902_013010.all.mb58.gz 53.77MB Kongsberg multibeam vendor format
0564_20130902_020008.all.mb58.gz 55.24MB Kongsberg multibeam vendor format
0565_20130902_023009.all.mb58.gz 57.08MB Kongsberg multibeam vendor format
0566_20130902_030009.all.mb58.gz 58.32MB Kongsberg multibeam vendor format
0567_20130902_033009.all.mb58.gz 42.40MB Kongsberg multibeam vendor format
0568_20130902_040010.all.mb58.gz 38.27MB Kongsberg multibeam vendor format
0569_20130902_043012.all.mb58.gz 37.04MB Kongsberg multibeam vendor format
0570_20130902_050013.all.mb58.gz 36.40MB Kongsberg multibeam vendor format
0571_20130902_053010.all.mb58.gz 35.48MB Kongsberg multibeam vendor format
0572_20130902_060014.all.mb58.gz 36.64MB Kongsberg multibeam vendor format
0573_20130902_063011.all.mb58.gz 36.56MB Kongsberg multibeam vendor format
0574_20130902_070012.all.mb58.gz 2.83MB Kongsberg multibeam vendor format
0575_20130902_070233.all.mb58.gz 2.50MB Kongsberg multibeam vendor format
0576_20130902_070430.all.mb58.gz 41.48MB Kongsberg multibeam vendor format
0577_20130902_073426.all.mb58.gz 23.83MB Kongsberg multibeam vendor format
0578_20130902_074533.all.mb58.gz 61.61MB Kongsberg multibeam vendor format
0579_20130902_080001.all.mb58.gz 23.15MB Kongsberg multibeam vendor format
0580_20130902_080525.all.mb58.gz 29.72MB Kongsberg multibeam vendor format
0581_20130902_081406.all.mb58.gz 43.68MB Kongsberg multibeam vendor format
0582_20130902_084407.all.mb58.gz 38.74MB Kongsberg multibeam vendor format
0583_20130902_091410.all.mb58.gz 38.10MB Kongsberg multibeam vendor format
0584_20130902_094408.all.mb58.gz 26.61MB Kongsberg multibeam vendor format
0585_20130902_101410.all.mb58.gz 18.58MB Kongsberg multibeam vendor format
0586_20130902_103554.all.mb58.gz 25.38MB Kongsberg multibeam vendor format
0587_20130902_110548.all.mb58.gz 1.39MB Kongsberg multibeam vendor format
0588_20130902_110725.all.mb58.gz 2.72MB Kongsberg multibeam vendor format
0589_20130902_111035.all.mb58.gz 25.62MB Kongsberg multibeam vendor format
0590_20130902_114043.all.mb58.gz 25.86MB Kongsberg multibeam vendor format
0591_20130902_121043.all.mb58.gz 6.55MB Kongsberg multibeam vendor format
0592_20130902_121811.all.mb58.gz 5.08MB Kongsberg multibeam vendor format
0593_20130902_122355.all.mb58.gz 26.43MB Kongsberg multibeam vendor format
0594_20130902_125353.all.mb58.gz 26.49MB Kongsberg multibeam vendor format
0595_20130902_132346.all.mb58.gz 26.59MB Kongsberg multibeam vendor format
0596_20130902_135351.all.mb58.gz 25.92MB Kongsberg multibeam vendor format
0597_20130902_142350.all.mb58.gz 26.44MB Kongsberg multibeam vendor format
0598_20130902_145347.all.mb58.gz 25.54MB Kongsberg multibeam vendor format
0599_20130902_152346.all.mb58.gz 26.97MB Kongsberg multibeam vendor format
0600_20130902_155354.all.mb58.gz 27.47MB Kongsberg multibeam vendor format
0601_20130902_162347.all.mb58.gz 27.20MB Kongsberg multibeam vendor format
0602_20130902_165350.all.mb58.gz 26.75MB Kongsberg multibeam vendor format
0603_20130902_172357.all.mb58.gz 26.76MB Kongsberg multibeam vendor format
0604_20130902_175357.all.mb58.gz 25.64MB Kongsberg multibeam vendor format
0605_20130902_182354.all.mb58.gz 25.34MB Kongsberg multibeam vendor format
0606_20130902_185355.all.mb58.gz 25.10MB Kongsberg multibeam vendor format
0607_20130902_192353.all.mb58.gz 25.21MB Kongsberg multibeam vendor format
0608_20130902_195356.all.mb58.gz 25.26MB Kongsberg multibeam vendor format
0609_20130902_202346.all.mb58.gz 25.23MB Kongsberg multibeam vendor format
0610_20130902_205355.all.mb58.gz 25.21MB Kongsberg multibeam vendor format
0611_20130902_212348.all.mb58.gz 26.00MB Kongsberg multibeam vendor format
0612_20130902_215352.all.mb58.gz 25.88MB Kongsberg multibeam vendor format
0613_20130902_222359.all.mb58.gz 25.91MB Kongsberg multibeam vendor format
0614_20130902_225356.all.mb58.gz 25.76MB Kongsberg multibeam vendor format
0615_20130902_232356.all.mb58.gz 26.03MB Kongsberg multibeam vendor format
0616_20130902_235346.all.mb58.gz 26.41MB Kongsberg multibeam vendor format
0617_20130903_002357.all.mb58.gz 26.24MB Kongsberg multibeam vendor format
0618_20130903_005359.all.mb58.gz 25.77MB Kongsberg multibeam vendor format
0619_20130903_012350.all.mb58.gz 27.01MB Kongsberg multibeam vendor format
0620_20130903_015346.all.mb58.gz 27.25MB Kongsberg multibeam vendor format
0621_20130903_022349.all.mb58.gz 29.29MB Kongsberg multibeam vendor format
0622_20130903_025349.all.mb58.gz 29.17MB Kongsberg multibeam vendor format
0623_20130903_032347.all.mb58.gz 29.45MB Kongsberg multibeam vendor format
0624_20130903_035349.all.mb58.gz 29.14MB Kongsberg multibeam vendor format
0625_20130903_042349.all.mb58.gz 29.42MB Kongsberg multibeam vendor format
0626_20130903_045352.all.mb58.gz 27.91MB Kongsberg multibeam vendor format
0627_20130903_052353.all.mb58.gz 26.81MB Kongsberg multibeam vendor format
0628_20130903_055352.all.mb58.gz 28.13MB Kongsberg multibeam vendor format
0629_20130903_062349.all.mb58.gz 27.70MB Kongsberg multibeam vendor format
0630_20130903_065346.all.mb58.gz 27.75MB Kongsberg multibeam vendor format
0631_20130903_072351.all.mb58.gz 27.93MB Kongsberg multibeam vendor format
0632_20130903_075353.all.mb58.gz 27.66MB Kongsberg multibeam vendor format
0633_20130903_082347.all.mb58.gz 28.13MB Kongsberg multibeam vendor format
0634_20130903_085350.all.mb58.gz 29.09MB Kongsberg multibeam vendor format
0635_20130903_092348.all.mb58.gz 30.72MB Kongsberg multibeam vendor format
0636_20130903_095350.all.mb58.gz 32.77MB Kongsberg multibeam vendor format
0637_20130903_102351.all.mb58.gz 29.68MB Kongsberg multibeam vendor format
0638_20130903_105347.all.mb58.gz 22.16MB Kongsberg multibeam vendor format
0639_20130903_112349.all.mb58.gz 23.92MB Kongsberg multibeam vendor format
0640_20130903_115346.all.mb58.gz 25.71MB Kongsberg multibeam vendor format
0641_20130903_122350.all.mb58.gz 22.78MB Kongsberg multibeam vendor format
0642_20130903_125347.all.mb58.gz 22.76MB Kongsberg multibeam vendor format
0643_20130903_132348.all.mb58.gz 24.18MB Kongsberg multibeam vendor format
0644_20130903_135348.all.mb58.gz 27.62MB Kongsberg multibeam vendor format
0645_20130903_142347.all.mb58.gz 25.22MB Kongsberg multibeam vendor format
0646_20130903_145349.all.mb58.gz 27.92MB Kongsberg multibeam vendor format
0647_20130903_152346.all.mb58.gz 30.08MB Kongsberg multibeam vendor format
0648_20130903_155350.all.mb58.gz 13.72MB Kongsberg multibeam vendor format
0649_20130905_024842.all.mb58.gz 30.94MB Kongsberg multibeam vendor format
0650_20130905_031843.all.mb58.gz 36.88MB Kongsberg multibeam vendor format
0651_20130905_034843.all.mb58.gz 38.48MB Kongsberg multibeam vendor format
0652_20130905_041843.all.mb58.gz 51.64MB Kongsberg multibeam vendor format
0653_20130905_044843.all.mb58.gz 83.97MB Kongsberg multibeam vendor format
0654_20130905_051842.all.mb58.gz 97.13MB Kongsberg multibeam vendor format
0655_20130905_054842.all.mb58.gz 93.31MB Kongsberg multibeam vendor format
0656_20130905_061842.all.mb58.gz 80.01MB Kongsberg multibeam vendor format
0657_20130905_064842.all.mb58.gz 67.93MB Kongsberg multibeam vendor format
0658_20130905_071842.all.mb58.gz 92.74MB Kongsberg multibeam vendor format
0659_20130905_074842.all.mb58.gz 112.94MB Kongsberg multibeam vendor format
0660_20130905_081842.all.mb58.gz 119.53MB Kongsberg multibeam vendor format
0661_20130905_084842.all.mb58.gz 118.88MB Kongsberg multibeam vendor format
0662_20130905_091842.all.mb58.gz 121.52MB Kongsberg multibeam vendor format
0663_20130905_094842.all.mb58.gz 122.46MB Kongsberg multibeam vendor format
0664_20130905_101842.all.mb58.gz 122.22MB Kongsberg multibeam vendor format
0665_20130905_104842.all.mb58.gz 72.79MB Kongsberg multibeam vendor format
0666_20130905_110609.all.mb58.gz 125.55MB Kongsberg multibeam vendor format
0667_20130905_113609.all.mb58.gz 30.57MB Kongsberg multibeam vendor format
0668_20130905_200823.all.mb58.gz 142.01MB Kongsberg multibeam vendor format
0669_20130905_203716.all.mb58.gz 128.86MB Kongsberg multibeam vendor format
0670_20130905_210716.all.mb58.gz 117.35MB Kongsberg multibeam vendor format
0671_20130905_213716.all.mb58.gz 110.85MB Kongsberg multibeam vendor format
0672_20130905_220716.all.mb58.gz 67.62MB Kongsberg multibeam vendor format
0673_20130905_222406.all.mb58.gz 61.25MB Kongsberg multibeam vendor format
0674_20130905_223908.all.mb58.gz 10.05MB Kongsberg multibeam vendor format
0675_20130905_224132.all.mb58.gz 116.99MB Kongsberg multibeam vendor format
0676_20130905_231132.all.mb58.gz 112.79MB Kongsberg multibeam vendor format
0677_20130905_234132.all.mb58.gz 118.21MB Kongsberg multibeam vendor format
0678_20130906_001132.all.mb58.gz 77.60MB Kongsberg multibeam vendor format
0679_20130906_002801.all.mb58.gz 158.52MB Kongsberg multibeam vendor format
0680_20130906_005801.all.mb58.gz 115.91MB Kongsberg multibeam vendor format
0681_20130906_012801.all.mb58.gz 106.81MB Kongsberg multibeam vendor format
0682_20130906_015801.all.mb58.gz 121.19MB Kongsberg multibeam vendor format
0683_20130906_022801.all.mb58.gz 13.13MB Kongsberg multibeam vendor format
0684_20130906_023103.all.mb58.gz 59.30MB Kongsberg multibeam vendor format
0685_20130906_024457.all.mb58.gz 125.67MB Kongsberg multibeam vendor format
0686_20130906_031458.all.mb58.gz 103.19MB Kongsberg multibeam vendor format
0687_20130906_034458.all.mb58.gz 115.95MB Kongsberg multibeam vendor format
0688_20130906_041457.all.mb58.gz 64.01MB Kongsberg multibeam vendor format
0689_20130906_042956.all.mb58.gz 96.26MB Kongsberg multibeam vendor format
0690_20130906_044735.all.mb58.gz 29.63MB Kongsberg multibeam vendor format
0691_20130906_045325.all.mb58.gz 114.44MB Kongsberg multibeam vendor format
0692_20130906_052325.all.mb58.gz 99.77MB Kongsberg multibeam vendor format
0693_20130906_055325.all.mb58.gz 125.79MB Kongsberg multibeam vendor format
0694_20130906_062325.all.mb58.gz 6.49MB Kongsberg multibeam vendor format
0695_20130906_062500.all.mb58.gz 59.18MB Kongsberg multibeam vendor format
0696_20130906_063858.all.mb58.gz 11.75MB Kongsberg multibeam vendor format
0697_20130906_064142.all.mb58.gz 123.81MB Kongsberg multibeam vendor format
0698_20130906_071142.all.mb58.gz 97.01MB Kongsberg multibeam vendor format
0699_20130906_074142.all.mb58.gz 117.90MB Kongsberg multibeam vendor format
0700_20130906_081142.all.mb58.gz 4.08MB Kongsberg multibeam vendor format
0701_20130906_081222.all.mb58.gz 112.90MB Kongsberg multibeam vendor format
0702_20130906_083157.all.mb58.gz 106.26MB Kongsberg multibeam vendor format
0703_20130906_090157.all.mb58.gz 102.25MB Kongsberg multibeam vendor format
0704_20130906_093157.all.mb58.gz 89.51MB Kongsberg multibeam vendor format
0705_20130906_095319.all.mb58.gz 65.81MB Kongsberg multibeam vendor format
0706_20130906_101002.all.mb58.gz 124.13MB Kongsberg multibeam vendor format
0707_20130906_104003.all.mb58.gz 98.60MB Kongsberg multibeam vendor format
0708_20130906_111003.all.mb58.gz 66.34MB Kongsberg multibeam vendor format
0709_20130906_112944.all.mb58.gz 39.43MB Kongsberg multibeam vendor format
0710_20130906_113950.all.mb58.gz 7.41MB Kongsberg multibeam vendor format
0711_20130906_114200.all.mb58.gz 94.65MB Kongsberg multibeam vendor format
0712_20130906_121200.all.mb58.gz 92.81MB Kongsberg multibeam vendor format
0713_20130906_123409.all.mb58.gz 13.71MB Kongsberg multibeam vendor format
0714_20130906_123728.all.mb58.gz 126.15MB Kongsberg multibeam vendor format
0715_20130906_130728.all.mb58.gz 129.35MB Kongsberg multibeam vendor format
0716_20130906_133728.all.mb58.gz 114.17MB Kongsberg multibeam vendor format
0717_20130906_140728.all.mb58.gz 105.82MB Kongsberg multibeam vendor format
0718_20130906_143717.all.mb58.gz 116.83MB Kongsberg multibeam vendor format
0719_20130906_150716.all.mb58.gz 121.19MB Kongsberg multibeam vendor format
0720_20130906_153717.all.mb58.gz 116.33MB Kongsberg multibeam vendor format
9999.all.mb58.gz 80.93MB Kongsberg multibeam vendor format

Metadata Files: 1

Files File Size Description
HLY1302_Multibeam.xml NGDC created ISO metadata